{"data":{"norad_id":65132,"intl_designator":"2025-171A","name":"KUIPER-00081","alt_names":[],"object_type":"PAYLOAD","status":"ACTIVE","operator":null,"country":"US","launch_date":"2025-08-11","launch_site_code":"AFETR","launch_vehicle":null,"mission":null,"orbit_class":"UNKNOWN","rcs_meters":null,"size_class":null,"mass_kg":null,"dimensions":null,"purposes":[],"wikipedia_slug":null,"has_3d_model":false,"image_url":null,"decayed_at":null,"tle_current":{"epoch":"2026-09-21T10:09:43.386048Z","epoch_age_seconds":85433,"freshness":"FRESH","line1":"1 65132U 25171A   26264.42341882  .00002236  00000+0  32213-3 0  9991","line2":"2 65132  51.9019   2.5379 0000355  95.9139 264.1864 14.79939688 62024","mean_motion":14.79939688,"eccentricity":3.55e-5,"inclination_deg":51.9019,"raan_deg":2.5379,"arg_perigee_deg":95.9139,"mean_anomaly_deg":264.1864,"bstar":0.00032213,"rev_number":6202,"period_min":97.301262455231,"perigee_km":629.26574526694,"apogee_km":629.76328852464,"semimajor_km":7007.6515168958,"source":"CELESTRAK","updated_at":"2026-09-22T09:00:30.148742Z"}}}